When you browse on this site, cookies collect data to enhance your experience and personalize the content and advertising you see.
Visit our Privacy Policy to learn more. By continuing to use the site, you agree to this use of cookies and data.
  • In Austria
  • List of Countries
  • For 7 days
  • Water Temperature
  • Weather Map
  • News
  • Weather Widgets
  • user-avatar
    Login

    Hourly Weather Andon

    Today, 19 September, Thursday

    Time Temperature Precipitation Wind Pressure Humidity
    00:00 +17°C° 0 mm 2 mps 751 mmHg 95%
    01:00 +16°C° 0 mm 2 mps 751 mmHg 94%
    02:00 +16°C° 0 mm 2 mps 751 mmHg 94%
    03:00 +15°C° 0 mm 1 mps 751 mmHg 92%
    04:00 +15°C° 0 mm 1 mps 751 mmHg 93%
    05:00 +14°C° 0 mm 1 mps 752 mmHg 93%
    06:00 +14°C° 0 mm 1 mps 752 mmHg 94%
    07:00 +16°C° 0 mm 1 mps 752 mmHg 84%
    08:00 +18°C° 0 mm 2 mps 752 mmHg 75%
    09:00 +20°C° 0 mm 2 mps 753 mmHg 65%
    10:00 +21°C° 0 mm 2 mps 752 mmHg 59%
    11:00 +24°C° 0 mm 2 mps 752 mmHg 53%
    12:00 +25°C° 0 mm 1 mps 752 mmHg 47%
    13:00 +26°C° 0 mm 1 mps 751 mmHg 46%
    14:00 +26°C° 0 mm 1 mps 751 mmHg 45%
    15:00 +26°C° 0 mm 1 mps 750 mmHg 44%
    16:00 +25°C° 0 mm 1 mps 750 mmHg 53%
    17:00 +23°C° 0 mm 1 mps 750 mmHg 62%
    18:00 +21°C° 0 mm 1 mps 750 mmHg 70%
    19:00 +19°C° 0 mm 1 mps 750 mmHg 75%
    20:00 +18°C° 0 mm 1 mps 750 mmHg 79%
    21:00 +15°C° 0 mm 1 mps 751 mmHg 84%
    22:00 +15°C° 0 mm 1 mps 751 mmHg 85%
    23:00 +15°C° 0 mm 1 mps 751 mmHg 85%

    Tomorrow, 20 September, Friday

    Time Temperature Precipitation Wind Pressure Humidity
    00:00 +14°C° 0 mm 1 mps 750 mmHg 86%
    01:00 +14°C° 0 mm 1 mps 750 mmHg 87%
    02:00 +14°C° 0 mm 1 mps 750 mmHg 87%
    03:00 +14°C° 0 mm 1 mps 750 mmHg 88%
    04:00 +14°C° 0 mm 1 mps 750 mmHg 87%
    05:00 +14°C° 0 mm 1 mps 750 mmHg 86%
    06:00 +14°C° 0 mm 1 mps 750 mmHg 85%
    07:00 +16°C° 0 mm 1 mps 750 mmHg 78%
    08:00 +19°C° 0 mm 1 mps 750 mmHg 72%
    09:00 +20°C° 0 mm 2 mps 751 mmHg 65%
    10:00 +21°C° 0 mm 2 mps 750 mmHg 61%
    11:00 +22°C° 0 mm 3 mps 750 mmHg 58%
    12:00 +23°C° 0 mm 4 mps 750 mmHg 54%
    13:00 +23°C° 0 mm 4 mps 750 mmHg 55%
    14:00 +23°C° 0 mm 4 mps 750 mmHg 55%
    15:00 +23°C° 0 mm 4 mps 749 mmHg 56%
    16:00 +22°C° 0 mm 4 mps 750 mmHg 62%
    17:00 +20°C° 0 mm 3 mps 750 mmHg 68%
    18:00 +19°C° 0 mm 3 mps 750 mmHg 73%
    19:00 +18°C° 0 mm 3 mps 750 mmHg 77%
    20:00 +17°C° 0 mm 2 mps 751 mmHg 80%
    21:00 +16°C° 0 mm 2 mps 751 mmHg 83%
    22:00 +16°C° 0 mm 2 mps 751 mmHg 85%
    23:00 +15°C° 0 mm 2 mps 750 mmHg 87%

    Day after tomorrow, 21 September, Saturday

    Time Temperature Precipitation Wind Pressure Humidity
    00:00 +15°C° 0 mm 2 mps 750 mmHg 89%
    01:00 +15°C° 0 mm 2 mps 750 mmHg 91%
    02:00 +15°C° 0 mm 2 mps 750 mmHg 92%
    03:00 +16°C° 0 mm 2 mps 750 mmHg 93%
    04:00 +16°C° 0 mm 2 mps 750 mmHg 93%
    05:00 +16°C° 0 mm 2 mps 750 mmHg 92%
    06:00 +16°C° 0 mm 2 mps 750 mmHg 92%
    07:00 +17°C° 0 mm 3 mps 750 mmHg 86%
    08:00 +19°C° 0 mm 4 mps 750 mmHg 81%
    09:00 +21°C° 0 mm 5 mps 751 mmHg 75%
    10:00 +20°C° 0.7 mm 4 mps 750 mmHg 81%
    11:00 +19°C° 0.7 mm 3 mps 750 mmHg 88%
    12:00 +17°C° 0.7 mm 2 mps 750 mmHg 94%
    13:00 +17°C° 1.1 mm 3 mps 750 mmHg 95%
    14:00 +17°C° 1.1 mm 3 mps 749 mmHg 95%
    15:00 +16°C° 1.1 mm 3 mps 749 mmHg 95%
    16:00 +15°C° 2.8 mm 4 mps 749 mmHg 95%
    17:00 +15°C° 2.8 mm 4 mps 749 mmHg 95%
    18:00 +14°C° 2.8 mm 5 mps 749 mmHg 95%
    19:00 +14°C° 2.4 mm 5 mps 749 mmHg 95%
    20:00 +14°C° 2.4 mm 5 mps 749 mmHg 95%
    21:00 +14°C° 2.4 mm 4 mps 749 mmHg 95%
    22:00 +14°C° 1.7 mm 4 mps 749 mmHg 95%
    23:00 +15°C° 1.7 mm 4 mps 748 mmHg 95%

    22 September, Sunday

    Time Temperature Precipitation Wind Pressure Humidity
    00:00 +15°C° 1.7 mm 4 mps 748 mmHg 95%
    01:00 +15°C° 1.1 mm 4 mps 748 mmHg 95%
    02:00 +15°C° 1.1 mm 4 mps 747 mmHg 95%
    03:00 +17°C° 1.1 mm 4 mps 747 mmHg 95%
    04:00 +16°C° 3.4 mm 5 mps 747 mmHg 95%
    05:00 +16°C° 3.4 mm 5 mps 746 mmHg 95%
    06:00 +15°C° 3.4 mm 5 mps 746 mmHg 95%
    07:00 +16°C° 2 mm 6 mps 746 mmHg 94%
    08:00 +16°C° 2 mm 6 mps 746 mmHg 94%
    09:00 +16°C° 2 mm 7 mps 746 mmHg 93%
    10:00 +15°C° 1.7 mm 7 mps 745 mmHg 93%
    11:00 +15°C° 1.7 mm 8 mps 745 mmHg 92%
    12:00 +15°C° 1.7 mm 8 mps 744 mmHg 92%
    13:00 +15°C° 2.7 mm 8 mps 743 mmHg 92%
    14:00 +14°C° 2.7 mm 7 mps 743 mmHg 92%
    15:00 +14°C° 2.7 mm 7 mps 742 mmHg 92%
    16:00 +14°C° 3 mm 6 mps 742 mmHg 93%
    17:00 +14°C° 3 mm 4 mps 742 mmHg 94%
    18:00 +14°C° 3 mm 3 mps 742 mmHg 95%
    19:00 +14°C° 0.4 mm 3 mps 743 mmHg 94%
    20:00 +15°C° 0.4 mm 2 mps 744 mmHg 93%
    21:00 +14°C° 0.4 mm 2 mps 744 mmHg 92%
    22:00 +14°C° 0.2 mm 2 mps 745 mmHg 92%
    23:00 +14°C° 0.2 mm 2 mps 746 mmHg 93%

    23 September, Monday

    Time Temperature Precipitation Wind Pressure Humidity
    00:00 +14°C° 0.2 mm 2 mps 746 mmHg 93%
    01:00 +13°C° 0 mm 2 mps 747 mmHg 93%
    02:00 +12°C° 0 mm 2 mps 747 mmHg 93%
    03:00 +11°C° 0 mm 1 mps 747 mmHg 93%
    04:00 +11°C° 0 mm 1 mps 748 mmHg 93%
    05:00 +10°C° 0 mm 1 mps 748 mmHg 93%
    06:00 +9°C° 0 mm 0 mps 748 mmHg 94%
    07:00 +11°C° 0 mm 0 mps 749 mmHg 89%
    08:00 +13°C° 0 mm 0 mps 749 mmHg 84%
    09:00 +15°C° 0 mm 0 mps 750 mmHg 78%
    10:00 +18°C° 0 mm 1 mps 750 mmHg 71%
    11:00 +20°C° 0 mm 1 mps 750 mmHg 63%
    12:00 +21°C° 0 mm 2 mps 750 mmHg 56%
    13:00 +21°C° 0 mm 2 mps 750 mmHg 55%
    14:00 +23°C° 0 mm 2 mps 750 mmHg 55%
    15:00 +22°C° 0 mm 3 mps 750 mmHg 55%
    16:00 +21°C° 0 mm 2 mps 750 mmHg 62%
    17:00 +19°C° 0 mm 2 mps 750 mmHg 70%
    18:00 +19°C° 0 mm 1 mps 750 mmHg 77%
    19:00 +18°C° 0 mm 1 mps 750 mmHg 80%
    20:00 +15°C° 0 mm 1 mps 751 mmHg 84%
    21:00 +13°C° 0 mm 0 mps 751 mmHg 87%
    22:00 +13°C° 0 mm 0 mps 751 mmHg 89%
    23:00 +12°C° 0 mm 0 mps 751 mmHg 90%

    24 September, Tuesday

    Time Temperature Precipitation Wind Pressure Humidity
    00:00 +12°C° 0 mm 0 mps 751 mmHg 92%
    01:00 +11°C° 0 mm 0 mps 752 mmHg 92%
    02:00 +11°C° 0 mm 0 mps 752 mmHg 93%
    03:00 +11°C° 0 mm 0 mps 752 mmHg 94%
    04:00 +11°C° 0 mm 0 mps 752 mmHg 94%
    05:00 +10°C° 0 mm 0 mps 752 mmHg 94%
    06:00 +10°C° 0 mm 0 mps 752 mmHg 95%
    07:00 +13°C° 0 mm 0 mps 752 mmHg 88%
    08:00 +15°C° 0 mm 0 mps 753 mmHg 81%
    09:00 +17°C° 0 mm 0 mps 753 mmHg 74%
    10:00 +19°C° 0 mm 0 mps 753 mmHg 67%
    11:00 +23°C° 0 mm 1 mps 753 mmHg 59%
    12:00 +25°C° 0 mm 1 mps 753 mmHg 52%
    13:00 +25°C° 0 mm 1 mps 753 mmHg 51%
    14:00 +25°C° 0 mm 1 mps 752 mmHg 49%
    15:00 +25°C° 0 mm 1 mps 752 mmHg 48%
    16:00 +23°C° 0 mm 1 mps 752 mmHg 56%
    17:00 +21°C° 0 mm 1 mps 752 mmHg 64%
    18:00 +20°C° 0 mm 1 mps 752 mmHg 72%
    19:00 +18°C° 0 mm 1 mps 752 mmHg 77%
    20:00 +16°C° 0 mm 1 mps 753 mmHg 81%
    21:00 +15°C° 0 mm 1 mps 753 mmHg 85%
    22:00 +15°C° 0 mm 1 mps 753 mmHg 86%
    23:00 +14°C° 0 mm 1 mps 754 mmHg 88%
    Show more